Weather History for Catania, Italy

Change the Weather History Date:

Monday, January 14, 2013

  Actual Average Record
Temperature  
Mean Temperature 52 °F -  
Max Temperature 64 °F 61 °F 71 °F (2007)
Min Temperature 39 °F 42 °F 33 °F (2002)
Degree Days  
Heating Degree Days 14    
Growing Degree Days 2 (Base 50)    
Moisture  
Dew Point 40 °F    
Average Humidity 74    
Maximum Humidity 93    
Minimum Humidity 37    
Precipitation  
Precipitation 0.00 in 0.08 in - ()
Sea Level Pressure  
Sea Level Pressure 29.97 in    
Wind  
Wind Speed 6 mph ()    
Max Wind Speed 14 mph    
Max Gust Speed -    
Visibility 6.0 miles    
Events      
Averages and records for this station are not official NWS values.
T = Trace of Precipitation, MM = Missing Value Source: Averaged Metar Reports

Daily Weather History Graph

Daily Weather History Graph

Search for Another Location

Airport:

Trip Planner

Search our weather history database for the weather conditions in past years. The results will help you decide how hot, cold, wet, or windy it might be!

Date:

Astronomy

Jan. 14, 2013 Rise Set
Actual Time 7:13 AM CET 5:04 PM CET
Civil Twilight 6:44 AM CET 5:33 PM CET
Nautical Twilight 6:12 AM CET 6:05 PM CET
Astronomical Twilight 5:41 AM CET 6:36 PM CET
Moon 8:41 AM CET (1/14) 8:25 PM CET (1/14)
Length of Visible Light 10h 48m
Length of Day
9h 51m
Waxing Crescent, 9% of the Moon is Illuminated
Jan 14
Waxing Crescent
Jan 19
First Quarter
Jan 27
Full
Feb 3
Last Quarter
Feb 10
New

Hourly Weather History & Observations

Time (CET) Temp. Windchill Dew Point Humidity Pressure Visibility Wind Dir Wind Speed Gust Speed Precip Events Conditions
12:20 AM 44.6 °F 40.7 °F 42.8 °F 93% 30.01 in 6.2 mi West 6.9 mph - N/A   Partly Cloudy
12:50 AM 44.6 °F 42.2 °F 42.8 °F 93% 30.01 in 6.2 mi WSW 4.6 mph - N/A   Partly Cloudy
1:20 AM 42.8 °F 39.3 °F 39.2 °F 87% 29.98 in 6.2 mi WSW 5.8 mph - N/A   Partly Cloudy
1:50 AM 42.8 °F 38.6 °F 39.2 °F 87% 29.98 in 6.2 mi WSW 6.9 mph - N/A   Partly Cloudy
2:20 AM 41.0 °F 35.2 °F 37.4 °F 87% 29.98 in - WSW 9.2 mph - N/A   Clear
2:50 AM 39.2 °F 34.2 °F 37.4 °F 93% 29.98 in 6.2 mi WSW 6.9 mph - N/A   Partly Cloudy
3:20 AM 39.2 °F 35.0 °F 37.4 °F 93% 29.98 in 6.2 mi SSW 5.8 mph - N/A   Partly Cloudy
3:50 AM 39.2 °F 34.2 °F 37.4 °F 93% 29.98 in 6.2 mi West 6.9 mph - N/A   Partly Cloudy
4:20 AM 41.0 °F 35.8 °F 39.2 °F 93% 29.98 in 6.2 mi WSW 8.1 mph - N/A   Partly Cloudy
4:50 AM 41.0 °F 35.8 °F 39.2 °F 93% 29.95 in 6.2 mi WSW 8.1 mph - N/A   Scattered Clouds
5:20 AM 41.0 °F 36.4 °F 39.2 °F 93% 29.95 in 6.2 mi WSW 6.9 mph - N/A   Partly Cloudy
5:50 AM 41.0 °F 35.8 °F 39.2 °F 93% 29.98 in 6.2 mi WSW 8.1 mph - N/A   Partly Cloudy
6:20 AM 41.0 °F 36.4 °F 39.2 °F 93% 29.98 in 6.2 mi SW 6.9 mph - N/A   Partly Cloudy
6:50 AM 41.0 °F 36.4 °F 39.2 °F 93% 29.98 in 6.2 mi SW 6.9 mph - N/A   Scattered Clouds
7:20 AM 41.0 °F 35.8 °F 39.2 °F 93% 29.98 in 3.1 mi West 8.1 mph - N/A   Scattered Clouds
7:50 AM 41.0 °F 36.4 °F 39.2 °F 93% 29.98 in 3.1 mi West 6.9 mph - N/A   Scattered Clouds
8:20 AM 44.6 °F 41.4 °F 42.8 °F 93% 29.98 in 4.3 mi WSW 5.8 mph - N/A   Scattered Clouds
8:50 AM 48.2 °F - 46.4 °F 93% 29.98 in 4.3 mi SW 3.5 mph - N/A   Partly Cloudy
9:20 AM 51.8 °F - 48.2 °F 88% 29.98 in 6.2 mi WSW 4.6 mph - N/A   Partly Cloudy
9:50 AM 51.8 °F - 48.2 °F 88% 29.98 in 6.2 mi SW 3.5 mph - N/A   Partly Cloudy
10:20 AM 57.2 °F - 48.2 °F 72% 30.01 in 6.2 mi SW 4.6 mph - N/A   Scattered Clouds
10:50 AM 59.0 °F - 46.4 °F 63% 29.98 in 6.2 mi SSW 3.5 mph - N/A   Scattered Clouds
11:20 AM 60.8 °F - 46.4 °F 59% 29.98 in 6.2 mi South 4.6 mph - N/A   Scattered Clouds
11:50 AM 60.8 °F - 46.4 °F 59% 29.98 in 6.2 mi Variable 3.5 mph - N/A   Mostly Cloudy
12:20 PM 62.6 °F - 37.4 °F 39% 29.95 in 6.2 mi SSW 10.4 mph - N/A   Mostly Cloudy
12:50 PM 64.4 °F - 37.4 °F 37% 29.95 in 6.2 mi SSW 11.5 mph - N/A   Scattered Clouds
1:20 PM 64.4 °F - 37.4 °F 37% 29.95 in 6.2 mi SSW 11.5 mph - N/A   Scattered Clouds
1:50 PM 64.4 °F - 37.4 °F 37% 29.95 in 6.2 mi South 11.5 mph - N/A   Scattered Clouds
2:20 PM 64.4 °F - 39.2 °F 40% 29.95 in 6.2 mi SSW 12.7 mph - N/A   Scattered Clouds
2:50 PM 64.4 °F - 37.4 °F 37% 29.95 in 6.2 mi SSW 13.8 mph - N/A   Scattered Clouds
3:20 PM 62.6 °F - 37.4 °F 39% 29.95 in 6.2 mi SSW 9.2 mph - N/A   Scattered Clouds
3:50 PM 62.6 °F - 39.2 °F 42% 29.95 in 6.2 mi SW 10.4 mph - N/A   Scattered Clouds
4:20 PM 62.6 °F - 39.2 °F 42% 29.95 in 6.2 mi SW 10.4 mph - N/A   Scattered Clouds
4:50 PM 59.0 °F - 41.0 °F 51% 29.95 in 6.2 mi WNW 8.1 mph - N/A   Scattered Clouds
5:20 PM 55.4 °F - 41.0 °F 58% 29.98 in 6.2 mi West 5.8 mph - N/A   Scattered Clouds
5:50 PM 55.4 °F - 41.0 °F 58% 29.98 in 6.2 mi West 3.5 mph - N/A   Scattered Clouds
6:20 PM 51.8 °F - 41.0 °F 67% 29.98 in 6.2 mi West 3.5 mph - N/A   Partly Cloudy
6:50 PM 50.0 °F - 39.2 °F 66% 29.98 in 6.2 mi SSW 2.3 mph - N/A   Partly Cloudy
7:20 PM 48.2 °F - 39.2 °F 71% 29.98 in 6.2 mi WSW 4.6 mph - N/A   Partly Cloudy
7:50 PM 46.4 °F 44.3 °F 39.2 °F 76% 29.98 in 6.2 mi West 4.6 mph - N/A   Partly Cloudy
8:20 PM 46.4 °F 45.2 °F 39.2 °F 76% 29.98 in 6.2 mi SSW 3.5 mph - N/A   Partly Cloudy
8:50 PM 44.6 °F 42.2 °F 37.4 °F 76% 29.98 in 6.2 mi West 4.6 mph - N/A   Partly Cloudy
9:20 PM 42.8 °F 39.3 °F 37.4 °F 81% 29.98 in 6.2 mi West 5.8 mph - N/A   Partly Cloudy
9:50 PM 42.8 °F 40.1 °F 39.2 °F 87% 29.98 in 6.2 mi WSW 4.6 mph - N/A   Partly Cloudy
10:20 PM 42.8 °F 39.3 °F 37.4 °F 81% 29.98 in 6.2 mi WSW 5.8 mph - N/A   Partly Cloudy
10:50 PM 41.0 °F 37.1 °F 37.4 °F 87% 29.98 in 6.2 mi WSW 5.8 mph - N/A   Partly Cloudy
11:20 PM 39.2 °F 34.2 °F 35.6 °F 87% 29.98 in 6.2 mi WSW 6.9 mph - N/A   Partly Cloudy
11:50 PM 39.2 °F 34.2 °F 35.6 °F 87% 29.98 in 6.2 mi SW 6.9 mph - N/A   Partly Cloudy